Regional Weather Roundup
Issued by NWS

Home | Current Version | Previous Version | Graphics & Text | Print | Product List | Glossary On
Versions: 1 2 3 4 5 6 7 8 9 10 11 12 13 14 15 16 17 18 19 20 21 22 23 24 25 26
000
ASUS45 KBOU 270307
RWRCO

WEATHER ROUNDUP FOR COLORADO
NATIONAL WEATHER SERVICE DENVER/BOULDER CO
900 PM MDT WED JUL 26 2017

NOTE: "FAIR" INDICATES FEW OR NO CLOUDS BELOW 12000 FEET WITH NO
SIGNIFICANT WEATHER AND/OR OBSTRUCTIONS TO VISIBILITY.

COZ001>005-013-030-031-270400-
...NORTHWEST COLORADO...

CITY           SKY/WX    TMP DP  RH WIND       PRES   REMARKS
CRAIG          FAIR      66  58  75 CALM      30.26S
HAYDEN         FAIR      66  55  68 W5        30.29S
MEEKER         FAIR      69  59  70 VRB3      30.26R
RABBIT EARS PA CLOUDY    52  52 100 CALM      30.59S FOG
STEAMBOAT SPGS FAIR      67  58  75 NE8       30.31S
WALDEN         FAIR      59  52  77 N5        30.43S
$$

COZ006>008-011-270400-
...WEST CENTRAL VALLEYS...

CITY           SKY/WX    TMP DP  RH WIND       PRES   REMARKS
GRAND JUNCTION FAIR      81  57  43 NW8       30.11S
MONTROSE       FAIR      77  60  55 NW3       30.21R
EAGLE          NOT AVBL
RIFLE          FAIR      79  57  46 N5        30.18R
DELTA          FAIR      85  53  33 SW5       30.15R
NUCLA          FAIR      77  54  44 W3        30.25S
$$

COZ017>023-064>068-270400-
...SOUTHWEST COLORADO...

CITY           SKY/WX    TMP DP  RH WIND       PRES   REMARKS
DURANGO        FAIR      76  51  41 W5        30.26R
CORTEZ         FAIR      77  57  50 N8        30.20R
PAGOSA SPRINGS FAIR      73  49  42 CALM      30.36R
TELLURIDE      FAIR      61  53  76 CALM      30.51S
WOLF CREEK PAS CLOUDY    50  43  76 NE3       30.76R THUNDER
$$

COZ009-010-012-014-032>034-037-058>063-270400-
...CENTRAL COLORADO...

CITY           SKY/WX    TMP DP  RH WIND       PRES   REMARKS
ASPEN          FAIR      69  54  58 W7        30.36R
BUENA VISTA    CLOUDY    68  53  58 E9G21     30.39R
COPPER MTN     CLOUDY    55  46  71 NW9       30.71S
BERTHOUD PASS  HAZE      43  32  65 NW8       30.75S VSB<1/4
COTTONWOOD PAS CLOUDY    66  52  59 E16G24    30.52R THUNDER
GUNNISON       FAIR      68  55  63 S7        30.36R
KREMMLING      CLOUDY    64  59  82 E3        30.39R
LEADVILLE      MOCLDY    59  48  67 N8        30.49R
MONARCH PASS   FAIR      52  45  76 SW16      30.79R
SALIDA         FAIR      71  54  54 SE14G29   30.40R
SUNLIGHT       FAIR      52  50  93 W7        30.63S
WILKERSON PASS TSTM      50  46  87 NE13G20   30.67S VSB 1/2
$$

COZ069>075-270400-
...SAN LUIS VALLEY/SANGRE DE CRISTO MOUNTAINS...

CITY           SKY/WX    TMP DP  RH WIND       PRES   REMARKS
ALAMOSA        CLOUDY    64  60  87 SW6       30.34R
DEL NORTE      MOCLDY    65  50  57 SW12      30.39R
LA VETA PASS   NOT AVBL
SAGUACHE         N/A    N/A N/A N/A MISG        N/A
$$

COZ035-036-038>040-270400-
...NORTHERN COLORADO FRONT RANGE...

CITY           SKY/WX    TMP DP  RH WIND       PRES   REMARKS
DENVER INTL AP MOCLDY    69  59  70 NE7       30.27R THUNDER
DMNS CITY PARK   N/A     65  60  82 N10G17    30.28R
AURORA         TSTM      65  65  99 CALM      30.30R
FRONT RANGE AP CLOUDY    70  61  73 S3        30.29R
ERIE MUNI ARPT RAIN      65  63  93 NW5       30.28R
BOULDER MUN AP CLOUDY    64  63  94 CALM      30.30R
CENTENNIAL     TSTM      65  64  97 NE14      30.30R
BROOMFIELD     LGT RAIN  64  61  88 NW10      30.31R
FORT COLLINS   MOCLDY    67  64  90 W5        30.27R
LONGMONT       LGT RAIN  69  63  80 SW5       30.30R
$$

COZ041-046-047-076>085-087-088-270400-
...PIKES PEAK/PALMER DIVIDE AND SOUTHERN FOOTHILLS...

CITY           SKY/WX    TMP DP  RH WIND       PRES   REMARKS
COLO. SPRINGS  TSTM      66  64  93 SW12      30.33R
A. F. ACADEMY  HVY RAIN  63  61  94 N10       30.33R FOG
SCHRIEVER AFB  HVY RAIN  61  61 100 CALM      30.33R
CHEYENNE MTN   LGT RAIN  64  58  83 NW10      30.32R
ELLICOTT       TSTM     N/A N/A N/A CALM      30.32R
FALCON         RAIN      62  60  93 N9G20     30.36R
FORT CARSON    TSTM      63  59  87 NE7       30.30R FOG
LIMON          FAIR      69  65  86 NE5       30.24S
MONUMENT HILL  RAIN      59  57  94 NE7       30.38F
CANON CITY     MOCLDY    70  64  83 SE5       30.25R
WALSENBURG     FAIR      66  63  88 CALM      30.28R
TRINIDAD       MOCLDY    69  60  73 W7        30.24R
$$

COZ042>045-048>051-090-091-270400-
...NORTHEAST COLORADO...

CITY           SKY/WX    TMP DP  RH WIND       PRES   REMARKS
GREELEY ARPT   FAIR      68  65  90 W6        30.25R
AKRON          FAIR      72  63  73 E9        30.21S
BURLINGTON     FAIR      72  66  81 NE10      30.17S
WRAY           NOT AVBL
YUMA           FAIR      68  59  73 E5        30.19R
STERLING       FAIR      75  63  64 SE7       30.17R
HOLYOKE        FAIR      73  68  83 E6        30.17F
FORT MORGAN    FAIR      73  56  55 NE3       30.22R
$$

COZ086-089-092>099-270400-
...SOUTHEAST COLORADO...

CITY           SKY/WX    TMP DP  RH WIND       PRES   REMARKS
PUEBLO         MOCLDY    69  65  86 N6        30.21R
LA JUNTA       RAIN      72  68  87 W17       30.18R FOG
LAMAR          FAIR      79  64  60 E13       30.09R
SPRINGFIELD      N/A     76  65  68 E10       30.14R
$$




USA.gov is the U.S. government's official web portal to all federal, state and local government web resources and services.